JE4YKI-13 Weather Reports


Display with metric or nautical units.
time (UTC)temp
F
wind
direction
speed
MPH
gust
MPH
rain 1hr
in
rain 24hr
in
rain mn
in
humidity
%
barometer
mb
20260508075308 68 345 2.0 0.0 0.00 0.00 0.00 35 1009.9
20260508074304 69 300 2.0 0.0 0.00 0.00 0.00 35 1009.8
20260508073304 69 302 1.0 0.0 0.00 0.00 0.00 36 1009.5
20260508072307 69 238 2.0 0.0 0.00 0.00 0.00 35 1009.3
20260508071303 69 332 1.0 0.0 0.00 0.00 0.00 35 1009.3
20260508070302 70 295 5.0 0.0 0.00 0.00 0.00 37 1009.2
20260508065301 70 330 5.0 0.0 0.00 0.00 0.00 38 1009.1
20260508064301 71 25 9.0 0.0 0.00 0.00 0.00 35 1009.0
20260508063301 72 25 4.0 0.0 0.00 0.00 0.00 33 1008.7
20260508062300 72 276 2.0 0.0 0.00 0.00 0.00 34 1008.7
20260508061300 71 246 3.0 0.0 0.00 0.00 0.00 35 1008.7
20260508060300 72 269 5.0 0.0 0.00 0.00 0.00 31 1008.7
20260508055259 72 340 0.0 0.0 0.00 0.00 0.00 35 1008.7
20260508054259 72 266 0.0 0.0 0.00 0.00 0.00 37 1008.5
20260508053258 72 229 0.0 0.0 0.00 0.00 0.00 37 1008.6
20260508052258 72 298 2.0 0.0 0.00 0.00 0.00 37 1008.7
20260508050257 73 259 8.0 0.0 0.00 0.00 0.00 42 1008.6
20260508045257 74 222 4.0 0.0 0.00 0.00 0.00 41 1008.7
20260508044256 73 304 1.0 0.0 0.00 0.00 0.00 42 1008.6
20260508043255 72 276 3.0 0.0 0.00 0.00 0.00 44 1008.5
20260508042255 72 235 3.0 0.0 0.00 0.00 0.00 42 1008.6
20260508041255 73 233 1.0 0.0 0.00 0.00 0.00 49 1008.4
20260508040254 73 19 2.0 0.0 0.00 0.00 0.00 51 1008.1
20260508035255 72 334 1.0 0.0 0.00 0.00 0.00 52 1008.2
20260508034253 71 352 0.0 0.0 0.00 0.00 0.00 54 1008.3
20260508033253 74 355 0.0 0.0 0.00 0.00 0.00 50 1008.0
20260508032253 74 336 4.0 0.0 0.00 0.00 0.00 48 1007.6
20260508031252 74 240 4.0 0.0 0.00 0.00 0.00 47 1007.6
20260508030252 74 252 4.0 0.0 0.00 0.00 0.00 48 1007.7
20260508025251 73 324 4.0 0.0 0.00 0.00 0.00 52 1007.8
20260508024250 73 342 4.0 0.0 0.00 0.00 0.00 53 1008.0
20260508023250 72 279 1.0 0.0 0.00 0.00 0.00 54 1008.3
20260508022250 72 269 1.0 0.0 0.00 0.00 0.00 55 1008.3
20260508021249 71 240 7.0 0.0 0.00 0.00 0.00 55 1008.3
20260508020249 70 274 4.0 0.0 0.00 0.00 0.00 56 1008.4
20260508015249 70 283 9.0 0.0 0.00 0.00 0.00 54 1008.7
20260508014248 70 189 3.0 0.0 0.00 0.00 0.00 53 1008.5
20260508013248 69 333 3.0 0.0 0.00 0.00 0.00 52 1008.5
20260508012247 70 283 2.0 0.0 0.00 0.00 0.00 53 1008.5
20260508011247 69 245 2.0 0.0 0.00 0.00 0.00 61 1008.5
20260508010247 69 191 1.0 0.0 0.00 0.00 0.00 63 1008.4
20260508005247 68 276 0.0 0.0 0.00 0.00 0.00 70 1008.2
20260508004246 68 286 0.0 0.0 0.00 0.00 0.00 73 1008.3
20260508003246 68 224 2.0 0.0 0.00 0.00 0.00 68 1008.2
20260508002246 68 259 1.0 0.0 0.00 0.00 0.00 67 1008.1
20260508001245 68 165 1.0 0.0 0.00 0.00 0.00 70 1008.3
20260508000245 68 182 0.0 0.0 0.00 0.00 0.00 72 1008.1
20260507235245 68 129 1.0 0.0 0.00 0.00 0.00 73 1008.2
20260507234244 68 176 0.0 0.0 0.00 0.00 0.00 74 1008.3
20260507233242 68 145 1.0 0.0 0.00 0.00 0.00 77 1008.3
20260507232241 68 302 0.0 0.0 0.00 0.00 0.00 80 1008.4
20260507231241 67 302 0.0 0.0 0.00 0.00 0.00 81 1008.4
20260507225239 67 306 0.0 0.0 0.00 0.00 0.00 79 1008.4
20260507224239 67 233 0.0 0.0 0.00 0.00 0.00 79 1008.1
20260507223238 67 352 0.0 0.0 0.00 0.00 0.00 79 1008.3
20260507222238 67 28 0.0 0.0 0.00 0.00 0.00 80 1008.5
20260507221238 67 110 0.0 0.0 0.00 0.00 0.00 80 1008.6
20260507220237 67 103 0.0 0.0 0.00 0.00 0.00 80 1008.4
20260507215237 67 73 0.0 0.0 0.00 0.00 0.00 80 1008.3
20260507214237 66 231 0.0 0.0 0.00 0.00 0.00 83 1008.3
20260507213236 65 233 0.0 0.0 0.00 0.00 0.00 84 1008.3
20260507212236 65 37 0.0 0.0 0.00 0.00 0.00 84 1008.3
20260507211236 64 332 0.0 0.0 0.00 0.00 0.00 85 1008.2
20260507210235 64 332 0.0 0.0 0.00 0.00 0.00 85 1008.1
20260507205235 64 332 0.0 0.0 0.00 0.00 0.00 85 1008.3
20260507204234 64 354 0.0 0.0 0.00 0.00 0.00 86 1008.3
20260507203234 64 279 0.0 0.0 0.00 0.00 0.00 85 1008.4
20260507202234 64 311 1.0 0.0 0.00 0.00 0.00 86 1008.2
20260507201233 64 292 0.0 0.0 0.00 0.00 0.00 85 1008.1
20260507200233 64 292 0.0 0.0 0.00 0.00 0.00 85 1008.2
20260507195233 64 280 0.0 0.0 0.00 0.00 0.00 84 1008.2
20260507194232 65 316 0.0 0.0 0.00 0.00 0.00 82 1008.2
20260507193232 66 354 0.0 0.0 0.00 0.00 0.00 80 1008.1
20260507192232 66 356 0.0 0.0 0.00 0.00 0.00 78 1008.0
20260507191231 66 252 5.0 0.0 0.00 0.00 0.00 78 1008.5
20260507190231 67 245 0.0 0.0 0.00 0.00 0.00 77 1007.9
20260507185322 67 300 0.0 0.0 0.00 0.00 0.00 77 1007.7
20260507185230 67 300 0.0 0.0 0.00 0.00 0.00 77 1007.7
20260507184230 67 257 8.0 0.0 0.00 0.00 0.00 76 1008.3
20260507183230 67 290 2.0 0.0 0.00 0.00 0.00 78 1008.2
20260507182229 66 253 1.0 0.0 0.00 0.00 0.00 80 1008.3
20260507181229 66 207 0.0 0.0 0.00 0.00 0.00 82 1008.0
20260507180403 65 141 1.0 0.0 0.00 0.00 0.00 86 1008.4
20260507180229 65 141 1.0 0.0 0.00 0.00 0.00 86 1008.4
20260507175228 65 240 0.0 0.0 0.00 0.00 0.00 86 1008.1
20260507174228 65 138 1.0 0.0 0.00 0.00 0.00 88 1008.5
20260507173227 65 307 0.0 0.0 0.00 0.00 0.00 88 1008.5
20260507172227 65 277 0.0 0.0 0.00 0.00 0.00 88 1008.5
20260507171227 65 278 0.0 0.0 0.00 0.00 0.00 88 1008.5
20260507170227 65 250 0.0 0.0 0.00 0.00 0.00 88 1008.5
20260507165227 65 279 0.0 0.0 0.00 0.00 0.00 88 1008.6
20260507164226 66 285 1.0 0.0 0.00 0.00 0.00 86 1008.7
20260507163225 66 246 1.0 0.0 0.00 0.00 0.00 87 1008.8
20260507162225 66 271 0.0 0.0 0.00 0.00 0.00 87 1008.9
20260507161224 66 224 0.0 0.0 0.00 0.00 0.00 86 1009.0
20260507160224 67 259 2.0 0.0 0.00 0.00 0.00 86 1009.2
20260507155224 67 264 1.0 0.0 0.00 0.00 0.00 85 1009.3
20260507154223 67 285 1.0 0.0 0.00 0.00 0.00 85 1009.4
20260507153223 68 271 1.0 0.0 0.00 0.00 0.00 84 1009.5
20260507152423 68 262 0.0 0.0 0.00 0.00 0.00 83 1009.4
20260507152223 68 262 0.0 0.0 0.00 0.00 0.00 83 1009.4
20260507151222 68 266 0.0 0.0 0.00 0.00 0.00 83 1009.4
20260507150222 68 239 1.0 0.0 0.00 0.00 0.00 82 1009.5
20260507145222 68 271 2.0 0.0 0.00 0.00 0.00 82 1009.7
20260507144221 68 281 1.0 0.0 0.00 0.00 0.00 82 1009.7
20260507143221 68 263 0.0 0.0 0.00 0.00 0.00 82 1009.7
20260507142220 68 271 0.0 0.0 0.00 0.00 0.00 82 1009.7
20260507141220 68 267 1.0 0.0 0.00 0.00 0.00 82 1009.7
20260507135243 68 230 0.0 0.0 0.00 0.00 0.00 80 1009.6
20260507134219 68 259 0.0 0.0 0.00 0.00 0.00 80 1009.8
20260507133219 68 266 0.0 0.0 0.00 0.00 0.00 79 1010.1
20260507132218 68 271 1.0 0.0 0.00 0.00 0.00 79 1010.1
20260507131218 68 246 3.0 0.0 0.00 0.00 0.00 79 1010.1
20260507130218 69 268 0.0 0.0 0.00 0.00 0.00 77 1010.1
20260507125217 69 248 0.0 0.0 0.00 0.00 0.00 76 1010.1
20260507124217 69 241 0.0 0.0 0.00 0.00 0.00 76 1010.1
20260507123217 69 226 0.0 0.0 0.00 0.00 0.00 76 1010.1
20260507122216 69 230 0.0 0.0 0.00 0.00 0.00 76 1010.1
20260507121216 69 257 0.0 0.0 0.00 0.00 0.00 75 1010.0
20260507120215 69 279 0.0 0.0 0.00 0.00 0.00 75 1009.9
20260507115215 69 237 1.0 0.0 0.00 0.00 0.00 76 1009.9
20260507114215 68 288 2.0 0.0 0.00 0.00 0.00 77 1009.6
20260507113214 68 276 0.0 0.0 0.00 0.00 0.00 78 1009.7
20260507112214 69 280 1.0 0.0 0.00 0.00 0.00 76 1009.7
20260507111214 70 286 0.0 0.0 0.00 0.00 0.00 74 1009.6
20260507110214 71 258 2.0 0.0 0.00 0.00 0.00 71 1009.6
20260507105213 71 288 3.0 0.0 0.00 0.00 0.00 70 1009.4
20260507103212 72 293 2.0 0.0 0.00 0.00 0.00 68 1009.3
20260507101212 72 299 2.0 0.0 0.00 0.00 0.00 66 1009.3
20260507100211 73 276 6.0 0.0 0.00 0.00 0.00 66 1009.3
20260507095211 73 137 7.0 0.0 0.00 0.00 0.00 66 1009.2
20260507094210 73 237 2.0 0.0 0.00 0.00 0.00 66 1009.1
20260507093210 73 301 1.0 0.0 0.00 0.00 0.00 66 1009.1
20260507092209 74 200 5.0 0.0 0.00 0.00 0.00 65 1009.0
20260507091209 74 217 5.0 0.0 0.00 0.00 0.00 65 1009.0
20260507090209 74 232 8.0 0.0 0.00 0.00 0.00 65 1008.8
20260507085208 74 246 5.0 0.0 0.00 0.00 0.00 65 1008.8
20260507083208 73 268 2.0 0.0 0.00 0.00 0.00 66 1008.9
20260507082207 73 238 5.0 0.0 0.00 0.00 0.00 66 1008.9
20260507081207 74 241 5.0 0.0 0.00 0.00 0.00 65 1008.9
20260507080206 74 252 1.0 0.0 0.00 0.00 0.00 65 1009.0